• In India
  • List of Countries
  • For 7 days
  • Water Temperature
  • Satellite Maps
  • Weather Map
  • Weather Widgets
  • user-avatar
    Login

    Hourly Weather Korçe

    Today, 23 October, Monday

    Time Temperature Precipitation Wind Pressure Humidity
    00:00 +10°C° 0 mm 2 mps 664 mmHg 83%
    01:00 +10°C° 0 mm 3 mps 663 mmHg 83%
    02:00 +10°C° 0.1 mm 3 mps 663 mmHg 82%
    03:00 +10°C° 0.1 mm 3 mps 662 mmHg 82%
    04:00 +10°C° 0.1 mm 3 mps 662 mmHg 81%
    05:00 +10°C° 0.4 mm 3 mps 661 mmHg 82%
    06:00 +10°C° 0.4 mm 3 mps 661 mmHg 83%
    07:00 +10°C° 0 mm 3 mps 661 mmHg 84%
    08:00 +11°C° 0.7 mm 3 mps 661 mmHg 82%
    09:00 +11°C° 0.7 mm 3 mps 661 mmHg 80%
    10:00 +12°C° 0.7 mm 3 mps 660 mmHg 78%
    11:00 +12°C° 0.5 mm 3 mps 660 mmHg 72%
    12:00 +13°C° 0.5 mm 3 mps 660 mmHg 67%
    13:00 +13°C° 0.5 mm 3 mps 660 mmHg 61%
    14:00 +12°C° 1 mm 3 mps 659 mmHg 65%
    15:00 +11°C° 1 mm 3 mps 658 mmHg 69%
    16:00 +10°C° 1 mm 2 mps 658 mmHg 74%
    17:00 +9°C° 0.6 mm 2 mps 657 mmHg 77%
    18:00 +8°C° 0.6 mm 2 mps 657 mmHg 80%
    19:00 +8°C° 0.6 mm 2 mps 657 mmHg 83%
    20:00 +8°C° 0.3 mm 1 mps 657 mmHg 84%
    21:00 +8°C° 0.3 mm 1 mps 657 mmHg 85%
    22:00 +7°C° 0.3 mm 1 mps 657 mmHg 86%
    23:00 +7°C° 0.2 mm 1 mps 657 mmHg 86%

    Tomorrow, 24 October, Tuesday

    Time Temperature Precipitation Wind Pressure Humidity
    00:00 +7°C° 0.2 mm 1 mps 657 mmHg 87%
    01:00 +6°C° 0.2 mm 1 mps 656 mmHg 87%
    02:00 +6°C° 0.1 mm 1 mps 656 mmHg 87%
    03:00 +6°C° 0.1 mm 1 mps 656 mmHg 87%
    04:00 +5°C° 0.1 mm 1 mps 656 mmHg 88%
    05:00 +6°C° 0.1 mm 1 mps 656 mmHg 86%
    06:00 +6°C° 0.1 mm 1 mps 656 mmHg 85%
    07:00 +6°C° 0.1 mm 1 mps 657 mmHg 84%
    08:00 +7°C° 0 mm 1 mps 657 mmHg 77%
    09:00 +7°C° 0 mm 2 mps 658 mmHg 70%
    10:00 +9°C° 0 mm 2 mps 658 mmHg 64%
    11:00 +9°C° 0.1 mm 2 mps 658 mmHg 63%
    12:00 +9°C° 0.1 mm 3 mps 658 mmHg 62%
    13:00 +9°C° 0.1 mm 3 mps 658 mmHg 61%
    14:00 +9°C° 0.2 mm 3 mps 658 mmHg 64%
    15:00 +8°C° 0.2 mm 3 mps 658 mmHg 66%
    16:00 +8°C° 0.2 mm 3 mps 658 mmHg 69%
    17:00 +7°C° 0.1 mm 3 mps 659 mmHg 72%
    18:00 +6°C° 0.1 mm 2 mps 659 mmHg 75%
    19:00 +5°C° 0.1 mm 2 mps 659 mmHg 78%
    20:00 +5°C° 0 mm 2 mps 660 mmHg 79%
    21:00 +5°C° 0 mm 2 mps 660 mmHg 80%
    22:00 +4°C° 0 mm 2 mps 660 mmHg 81%
    23:00 +4°C° 0 mm 2 mps 661 mmHg 82%

    Day after tomorrow, 25 October, Wednesday

    Time Temperature Precipitation Wind Pressure Humidity
    00:00 +4°C° 0 mm 2 mps 661 mmHg 82%
    01:00 +4°C° 0 mm 2 mps 661 mmHg 83%
    02:00 +3°C° 0 mm 2 mps 662 mmHg 83%
    03:00 +3°C° 0 mm 2 mps 662 mmHg 84%
    04:00 +3°C° 0 mm 2 mps 662 mmHg 84%
    05:00 +3°C° 0 mm 3 mps 663 mmHg 83%
    06:00 +3°C° 0 mm 3 mps 663 mmHg 83%
    07:00 +4°C° 0 mm 3 mps 664 mmHg 82%
    08:00 +7°C° 0 mm 3 mps 665 mmHg 73%
    09:00 +9°C° 0 mm 3 mps 666 mmHg 63%
    10:00 +11°C° 0 mm 4 mps 666 mmHg 54%
    11:00 +12°C° 0 mm 4 mps 667 mmHg 52%
    12:00 +13°C° 0 mm 4 mps 667 mmHg 50%
    13:00 +13°C° 0 mm 4 mps 667 mmHg 48%
    14:00 +13°C° 0 mm 3 mps 667 mmHg 51%
    15:00 +12°C° 0 mm 3 mps 668 mmHg 54%
    16:00 +12°C° 0 mm 3 mps 668 mmHg 57%
    17:00 +10°C° 0 mm 3 mps 668 mmHg 62%
    18:00 +9°C° 0 mm 2 mps 668 mmHg 67%
    19:00 +7°C° 0 mm 2 mps 669 mmHg 72%
    20:00 +7°C° 0 mm 2 mps 669 mmHg 74%
    21:00 +7°C° 0 mm 2 mps 670 mmHg 76%
    22:00 +6°C° 0 mm 2 mps 670 mmHg 79%
    23:00 +6°C° 0 mm 2 mps 670 mmHg 80%

    26 October, Thursday

    Time Temperature Precipitation Wind Pressure Humidity
    00:00 +6°C° 0 mm 2 mps 670 mmHg 81%
    01:00 +5°C° 0 mm 2 mps 670 mmHg 82%
    02:00 +5°C° 0 mm 2 mps 670 mmHg 83%
    03:00 +5°C° 0 mm 2 mps 671 mmHg 83%
    04:00 +5°C° 0 mm 2 mps 671 mmHg 83%
    05:00 +5°C° 0 mm 2 mps 671 mmHg 82%
    06:00 +5°C° 0 mm 2 mps 671 mmHg 80%
    07:00 +6°C° 0 mm 2 mps 672 mmHg 79%
    08:00 +8°C° 0 mm 2 mps 672 mmHg 70%
    09:00 +10°C° 0 mm 2 mps 673 mmHg 60%
    10:00 +14°C° 0 mm 2 mps 674 mmHg 51%
    11:00 +14°C° 0 mm 2 mps 674 mmHg 48%
    12:00 +15°C° 0 mm 2 mps 674 mmHg 45%
    13:00 +16°C° 0 mm 2 mps 674 mmHg 43%
    14:00 +16°C° 0 mm 2 mps 674 mmHg 46%
    15:00 +15°C° 0 mm 2 mps 673 mmHg 49%
    16:00 +14°C° 0 mm 1 mps 673 mmHg 52%
    17:00 +13°C° 0 mm 1 mps 673 mmHg 57%
    18:00 +11°C° 0 mm 1 mps 673 mmHg 61%
    19:00 +10°C° 0 mm 1 mps 672 mmHg 66%
    20:00 +10°C° 0 mm 1 mps 672 mmHg 66%
    21:00 +9°C° 0 mm 1 mps 672 mmHg 67%
    22:00 +9°C° 0 mm 1 mps 672 mmHg 68%
    23:00 +9°C° 0 mm 1 mps 672 mmHg 68%

    27 October, Friday

    Time Temperature Precipitation Wind Pressure Humidity
    00:00 +8°C° 0 mm 1 mps 672 mmHg 68%
    01:00 +8°C° 0 mm 1 mps 671 mmHg 68%
    02:00 +8°C° 0 mm 1 mps 671 mmHg 68%
    03:00 +8°C° 0 mm 1 mps 671 mmHg 68%
    04:00 +8°C° 0 mm 1 mps 671 mmHg 67%
    05:00 +8°C° 0 mm 1 mps 671 mmHg 66%
    06:00 +9°C° 0 mm 1 mps 671 mmHg 64%
    07:00 +9°C° 0 mm 1 mps 671 mmHg 62%
    08:00 +12°C° 0 mm 1 mps 671 mmHg 54%
    09:00 +14°C° 0 mm 1 mps 671 mmHg 46%
    10:00 +16°C° 0 mm 0 mps 672 mmHg 38%
    11:00 +18°C° 0 mm 1 mps 672 mmHg 36%
    12:00 +19°C° 0 mm 1 mps 671 mmHg 35%
    13:00 +19°C° 0 mm 2 mps 671 mmHg 33%
    14:00 +18°C° 0 mm 2 mps 670 mmHg 38%
    15:00 +17°C° 0 mm 2 mps 669 mmHg 44%
    16:00 +15°C° 0 mm 1 mps 668 mmHg 49%
    17:00 +14°C° 0 mm 1 mps 668 mmHg 55%
    18:00 +12°C° 0 mm 1 mps 667 mmHg 60%
    19:00 +11°C° 0 mm 1 mps 667 mmHg 66%
    20:00 +10°C° 0 mm 1 mps 666 mmHg 66%
    21:00 +10°C° 0 mm 1 mps 666 mmHg 67%
    22:00 +10°C° 0 mm 1 mps 666 mmHg 67%
    23:00 +9°C° 0 mm 1 mps 665 mmHg 67%

    28 October, Saturday

    Time Temperature Precipitation Wind Pressure Humidity
    00:00 +9°C° 0 mm 1 mps 665 mmHg 67%
    01:00 +9°C° 0 mm 1 mps 664 mmHg 67%
    02:00 +8°C° 0 mm 1 mps 664 mmHg 67%
    03:00 +8°C° 0 mm 1 mps 663 mmHg 67%
    04:00 +8°C° 0 mm 1 mps 663 mmHg 67%
    05:00 +8°C° 0 mm 1 mps 663 mmHg 66%
    06:00 +8°C° 0 mm 1 mps 663 mmHg 64%
    07:00 +9°C° 0 mm 1 mps 663 mmHg 62%
    08:00 +10°C° 0 mm 1 mps 663 mmHg 56%
    09:00 +12°C° 0 mm 1 mps 664 mmHg 49%
    10:00 +14°C° 0 mm 1 mps 664 mmHg 43%
    11:00 +14°C° 0 mm 1 mps 664 mmHg 43%
    12:00 +14°C° 0 mm 1 mps 664 mmHg 43%
    13:00 +14°C° 0 mm 2 mps 664 mmHg 43%
    14:00 +14°C° 0 mm 2 mps 663 mmHg 48%
    15:00 +13°C° 0 mm 2 mps 663 mmHg 53%
    16:00 +12°C° 0 mm 2 mps 663 mmHg 58%
    17:00 +10°C° 0.1 mm 2 mps 663 mmHg 62%
    18:00 +9°C° 0.1 mm 2 mps 663 mmHg 67%
    19:00 +9°C° 0.1 mm 1 mps 663 mmHg 71%
    20:00 +8°C° 0.1 mm 2 mps 663 mmHg 73%
    21:00 +7°C° 0.1 mm 2 mps 663 mmHg 74%
    22:00 +7°C° 0.1 mm 2 mps 663 mmHg 75%
    23:00 +6°C° 0.1 mm 2 mps 662 mmHg 76%

    29 October, Sunday

    Time Temperature Precipitation Wind Pressure Humidity
    00:00 +6°C° 0.1 mm 2 mps 662 mmHg 76%
    01:00 +5°C° 0.1 mm 2 mps 662 mmHg 77%
    02:00 +5°C° 0.2 mm 2 mps 662 mmHg 77%
    03:00 +5°C° 0.2 mm 2 mps 662 mmHg 77%
    04:00 +4°C° 0.2 mm 2 mps 661 mmHg 76%
    05:00 +4°C° 0.1 mm 2 mps 662 mmHg 76%
    06:00 +4°C° 0.1 mm 2 mps 662 mmHg 76%
    07:00 +4°C° 0.1 mm 2 mps 662 mmHg 75%
    08:00 +4°C° 0 mm 3 mps 662 mmHg 67%
    09:00 +5°C° 0 mm 3 mps 663 mmHg 59%
    10:00 +7°C° 0 mm 3 mps 663 mmHg 50%
    11:00 +8°C° 0 mm 3 mps 663 mmHg 48%
    12:00 +7°C° 0 mm 4 mps 663 mmHg 45%
    13:00 +8°C° 0 mm 4 mps 663 mmHg 42%
    14:00 +7°C° 0 mm 4 mps 663 mmHg 45%
    15:00 +7°C° 0 mm 4 mps 663 mmHg 47%
    16:00 +6°C° 0 mm 4 mps 663 mmHg 49%
    17:00 +5°C° 0 mm 3 mps 663 mmHg 54%
    18:00 +4°C° 0 mm 3 mps 664 mmHg 59%
    19:00 +4°C° 0 mm 2 mps 664 mmHg 65%
    20:00 +3°C° 0 mm 2 mps 664 mmHg 66%
    21:00 +3°C° 0 mm 2 mps 664 mmHg 68%
    22:00 +3°C° 0 mm 1 mps 664 mmHg 70%
    23:00 +3°C° 0 mm 1 mps 664 mmHg 71%
    Show more